Location: Glion
(46.4330°N, 6.9246°E)
Time: 23:13:26
(UTC+00:00)

Meteor 1-20 Rocket - Visible Passes

Search period start: 24 June 2021 00:00
Search period end: 04 July 2021 00:00
Orbit: 818 x 892 km, 81.2° (Epoch: 24 June)

Date Brightness Start Highest point End Pass type
(mag) Time Alt. Az. Time Alt. Az. Time Alt. Az.
24 Jun 6.7 01:48:02 10° ESE 01:50:39 14° E 01:53:15 10° NE visible
25 Jun 6.7 01:37:48 10° ESE 01:40:09 13° E 01:42:29 10° NE visible
26 Jun 6.8 01:27:36 10° ESE 01:29:38 12° E 01:31:40 10° ENE visible
27 Jun 6.8 01:17:29 10° E 01:19:08 11° E 01:20:47 10° ENE visible
27 Jun 4.3 02:55:44 10° S 03:01:13 83° E 03:06:42 10° NNE visible
28 Jun 6.8 01:07:30 10° E 01:08:38 11° E 01:09:46 10° ENE visible
28 Jun 4.3 02:45:12 10° S 02:50:39 79° E 02:56:09 10° NNE visible
29 Jun 4.3 02:34:40 10° S 02:40:07 75° E 02:45:35 10° NNE visible
30 Jun 4.4 02:24:09 10° S 02:29:34 71° E 02:35:01 10° NNE visible
01 Jul 4.4 02:13:37 10° S 02:19:01 68° E 02:24:28 10° NNE visible
02 Jul 4.5 02:03:13 11° S 02:08:29 64° E 02:13:54 10° NNE visible
03 Jul 4.6 01:53:04 13° S 01:57:56 61° E 02:03:20 10° NNE visible
